Weather History for Lynchburg, VA

Change the Weather History Date:

Friday, March 16, 2012

  Actual Average Record
Temperature  
Mean Temperature 63 °F 46 °F  
Max Temperature 76 °F 58 °F 81 °F (1945)
Min Temperature 50 °F 34 °F 17 °F (1970)
Degree Days  
Heating Degree Days 2 19  
Month to date heating degree days 223 345  
Since 1 July heating degree days 3151 3769  
Cooling Degree Days 0 0  
Month to date cooling degree days 2 0  
Year to date cooling degree days 2 0  
Growing Degree Days 14 (Base 50)    
Moisture  
Dew Point 50 °F    
Average Humidity 65    
Maximum Humidity 89    
Minimum Humidity 41    
Precipitation  
Precipitation T in 0.13 in 2.35 in (1950)
Month to date precipitation 1.27 1.78  
Year to date precipitation 6.10 7.85  
Snow  
Snow 0.00 in - - ()
Month to date snowfall 0.8  
Since 1 July snowfall 8.5  
Snow Depth 0.00 in    
Sea Level Pressure  
Sea Level Pressure 30.16 in    
Wind  
Wind Speed 3 mph (SW)    
Max Wind Speed 10 mph    
Max Gust Speed 14 mph    
Visibility 10 miles    
Events Rain    
T = Trace of Precipitation, MM = Missing Value Source: NWS Daily Summary

Daily Weather History Graph

Daily Weather History Graph

Search for Another Location

Airport:

Trip Planner

Search our weather history database for the weather conditions in past years. The results will help you decide how hot, cold, wet, or windy it might be!

Date:

Astronomy

Mar. 16, 2012 Rise Set
Actual Time 7:25 AM EDT 7:25 PM EDT
Civil Twilight 6:59 AM EDT 7:51 PM EDT
Nautical Twilight 6:29 AM EDT 8:21 PM EDT
Astronomical Twilight 5:58 AM EDT 8:52 PM EDT
Moon 3:35 AM EDT (3/16) 1:50 PM EDT (3/16)
Length of Visible Light 12h 51m
Length of Day
11h 59m
Waning Crescent, 33% of the Moon is Illuminated
Mar 16
Waning Crescent
Mar 22
New
Mar 30
First Quarter
Apr 6
Full
Apr 13
Last Quarter

Hourly Weather History & Observations

Time (EDT) Temp. Dew Point Humidity Pressure Visibility Wind Dir Wind Speed Gust Speed Precip Events Conditions
12:54 AM 57.0 °F 48.9 °F 74% 30.17 in 10.0 mi SSW 4.6 mph - N/A   Clear
1:54 AM 54.0 °F 48.0 °F 80% 30.16 in 10.0 mi SSW 4.6 mph - N/A   Clear
2:54 AM 55.9 °F 48.9 °F 77% 30.16 in 10.0 mi SSW 5.8 mph - N/A   Clear
3:54 AM 53.1 °F 48.9 °F 86% 30.15 in 10.0 mi SW 4.6 mph - N/A   Partly Cloudy
4:54 AM 57.9 °F 50.0 °F 75% 30.14 in 10.0 mi WSW 5.8 mph - N/A   Clear
5:54 AM 54.0 °F 48.9 °F 83% 30.15 in 10.0 mi SW 3.5 mph - N/A   Clear
6:54 AM 52.0 °F 48.0 °F 86% 30.17 in 10.0 mi Calm Calm - N/A   Partly Cloudy
7:54 AM 53.1 °F 48.9 °F 86% 30.19 in 10.0 mi Calm Calm - N/A   Scattered Clouds
8:54 AM 57.9 °F 52.0 °F 81% 30.19 in 10.0 mi Calm Calm - N/A   Clear
9:54 AM 64.0 °F 52.0 °F 65% 30.20 in 10.0 mi West 4.6 mph - N/A   Clear
10:54 AM 69.1 °F 52.0 °F 54% 30.19 in 10.0 mi NNW 3.5 mph - N/A   Clear
11:54 AM 73.0 °F 51.1 °F 46% 30.19 in 10.0 mi Variable 5.8 mph - N/A   Mostly Cloudy
12:54 PM 71.6 °F 50.0 °F 46% 30.19 in 10.0 mi Variable 6.9 mph - N/A   Overcast
1:54 PM 73.9 °F 50.0 °F 43% 30.16 in 10.0 mi South 6.9 mph - N/A   Mostly Cloudy
2:54 PM 75.0 °F 50.0 °F 41% 30.12 in 10.0 mi SSW 8.1 mph - N/A   Overcast
3:54 PM 72.0 °F 51.1 °F 48% 30.13 in 10.0 mi WSW 4.6 mph - 0.00 in Rain Light Rain
4:54 PM 72.0 °F 48.9 °F 44% 30.12 in 10.0 mi WSW 4.6 mph - 0.00 in   Overcast
5:54 PM 72.0 °F 50.0 °F 46% 30.12 in 10.0 mi SW 3.5 mph - N/A   Overcast
6:54 PM 70.0 °F 52.0 °F 53% 30.13 in 10.0 mi Calm Calm - N/A   Mostly Cloudy
7:54 PM 66.0 °F 53.1 °F 63% 30.16 in 10.0 mi Calm Calm - N/A   Mostly Cloudy
8:54 PM 59.0 °F 52.0 °F 78% 30.17 in 10.0 mi Calm Calm - N/A   Partly Cloudy
9:54 PM 57.9 °F 52.0 °F 81% 30.18 in 10.0 mi Calm Calm - N/A   Clear
10:54 PM 55.9 °F 52.0 °F 87% 30.19 in 10.0 mi Calm Calm - N/A   Partly Cloudy
11:54 PM 55.9 °F 51.1 °F 84% 30.19 in 10.0 mi Calm Calm - N/A   Clear